[[{"header":{"parameterUnit":"m.s-1","parameterCategory":1,"la1":30.2991,"la2":30.254,"lo1":-89.0895,"lo2":-89.0444,"dy":0.0017,"dx":0.0017,"nx":28,"ny":28,"refTime":"2025-11-26T03:00:00:Z","depth":0,"parameterNumber":2,"parameterNumberName":"U-component_of_WINDS"},"data":[0,0,0,0,0,0,0,0,0,0,0,0,0,0,0,0,0,0,0,0,0,0,0,0,0,0,0,0,0,0,0,0,0,0,0,0,0,0,0,0,0,0,0,0,0,0,0,0,0,0,0,0,0,0,0,0,0,0,0.4089,0.4089,0,0.4056,0.4056,0.4055,0.403,0.403,0.4029,0.4029,0.3995,0.3994,0.3994,0,0,0,0,0,0,0,0,0,0,0,0,0,0.4131,0.413,0.4089,0.4089,0.4088,0.4056,0.4056,0.4055,0.403,0.403,0.4029,0.4029,0.3995,0.3994,0.3993,0,0,0,0,0,0,0,0,0,0,0,0,0,0.4107,0.413,0.4089,0.4072,0.407,0.4056,0.4056,0.4055,0.403,0.403,0.4029,0.4029,0.3995,0.3994,0.3993,0.3994,0,0,0.399,0.399,0,0,0,0,0,0,0,0,0.4108,0.4105,0.4075,0.4073,0.4071,0.4047,0.4058,0.4035,0.403,0.4045,0.4029,0.4029,0.4012,0.401,0.4004,0.3992,0.3991,0.399,0.3989,0.3989,0.3989,0,0,0,0,0,0,0,0.411,0.4106,0.4076,0.4074,0.4072,0.4066,0.4062,0.4053,0.4031,0.4044,0.4042,0.4038,0.4011,0.4006,0.4003,0.399,0.399,0.3989,0.3989,0.3988,0.3978,0.3978,0,0,0,0,0,0,0.4114,0.4108,0.4077,0.4075,0.4089,0.4065,0.4061,0.4055,0.4031,0.4027,0.4039,0.4037,0.4007,0.4005,0.4002,0.4002,0.3989,0.3988,0.3987,0.3978,0.3978,0.3978,0,0,0,0,0,0,0.4115,0.4112,0.4078,0.4091,0.4086,0.4065,0.4058,0.4054,0.4049,0.4027,0.4023,0.4037,0.4007,0.4004,0.3996,0.4,0.3988,0.3987,0.3977,0.3978,0.3978,0.4001,0,0,0,0,0,0,0.4116,0.4112,0.4112,0.4091,0.4086,0.4073,0.4058,0.4054,0.4047,0.4045,0.4025,0.4021,0.4007,0.3998,0.3995,0.3999,0.3986,0.3977,0.3977,0.3978,0.4,0.4002,0.4004,0,0,0,0,0,0.4118,0.4119,0.4112,0.4109,0.4085,0.4073,0.407,0.4054,0.4047,0.4047,0.4034,0.4021,0.4,0.3998,0.3994,0.3997,0.3976,0.3977,0.3978,0.3999,0.4002,0.4004,0,0,0,0,0,0,0.4141,0.4116,0.4108,0.4103,0.409,0.4069,0.4068,0.4057,0.4047,0.4045,0.4025,0.4021,0.4016,0.4006,0.4003,0.3997,0.3987,0.3987,0.4004,0.4006,0.4009,0.4011,0.3985,0,0,0,0,0,0.4146,0.4138,0.4117,0.4114,0.4109,0.409,0.4084,0.4073,0.4059,0.4053,0.4039,0.4027,0.4017,0.4011,0.4001,0.3998,0.3994,0.3999,0.4001,0.4003,0.4003,0.4002,0.4004,0.3981,0.3981,0.3981,0,0,0.4155,0.414,0.4137,0.4119,0.4108,0.4101,0.4085,0.4078,0.4073,0.4052,0.4045,0.4034,0.4018,0.4014,0.4011,0.4005,0.4009,0.4004,0.4006,0.4005,0.4003,0.4005,0.4007,0.3982,0.3982,0.3981,0,0,0.4168,0.4156,0.4153,0.4143,0.4126,0.4114,0.4113,0.4094,0.4086,0.4078,0.4063,0.4056,0.404,0.403,0.4022,0.4033,0.4021,0.403,0.4042,0.404,0.4042,0.4044,0.4048,0.4049,0.4031,0.4031,0.4031,0,0.4181,0.417,0.4153,0.4147,0.414,0.4121,0.4118,0.4108,0.409,0.4085,0.4079,0.4059,0.4047,0.404,0.4043,0.4038,0.4036,0.4032,0.4043,0.4045,0.4046,0.405,0.4051,0.4032,0.4032,0.4031,0.4031,0,0.4187,0.418,0.4179,0.4162,0.4155,0.415,0.4133,0.4127,0.4117,0.4105,0.4098,0.4083,0.407,0.4068,0.4057,0.4059,0.4056,0.4047,0.4036,0.405,0.4053,0.4054,0.4033,0.4033,0.4033,0.4032,0,0,0.4214,0.4188,0.4188,0.418,0.4161,0.4155,0.415,0.4138,0.4134,0.4122,0.4117,0.4105,0.4096,0.4088,0.4076,0.4075,0.4085,0.4066,0.4065,0.407,0.4087,0.4094,0.4096,0.4077,0.4077,0.4078,0.4088,0,0.4224,0.4214,0.4199,0.4194,0.4187,0.4169,0.4165,0.4153,0.4142,0.4135,0.4123,0.4114,0.4104,0.4099,0.4097,0.4084,0.4088,0.4083,0.4073,0.4073,0.4078,0.4097,0.4105,0.4115,0.4089,0.4089,0.409,0,0.4235,0.4224,0.4218,0.4201,0.4197,0.4194,0.4182,0.4175,0.4161,0.4153,0.4145,0.4132,0.4126,0.4117,0.4108,0.4106,0.4101,0.4094,0.4094,0.4092,0.4082,0.4097,0.4118,0.412,0.4091,0.4091,0.4091,0,0.4255,0.4239,0.4234,0.4228,0.4207,0.4205,0.4196,0.4182,0.4176,0.4165,0.4161,0.415,0.4144,0.4136,0.4121,0.4115,0.4114,0.4104,0.4108,0.4108,0.4109,0.4109,0.413,0.4105,0.4105,0.4105,0.4105,0,0.4268,0.4265,0.4243,0.424,0.4236,0.4219,0.4216,0.4206,0.4194,0.4189,0.4173,0.4168,0.4148,0.4142,0.413,0.4125,0.4122,0.4116,0.4113,0.4118,0.4119,0.4114,0.4113,0.4106,0.4105,0.4105,0.4105,0,0.429,0.4275,0.4268,0.4249,0.4244,0.4243,0.4227,0.4223,0.4212,0.4205,0.4203,0.4184,0.4176,0.416,0.4146,0.4139,0.4137,0.4131,0.4141,0.4139,0.4145,0.4145,0.4164,0.4166,0.414,0.414,0.414,0,0.43,0.4297,0.4278,0.4274,0.4266,0.4258,0.4252,0.4235,0.4229,0.4214,0.4213,0.4203,0.4194,0.4181,0.4166,0.4156,0.4151,0.4158,0.4149,0.4154,0.4151,0.4152,0.4152,0.416,0.4161,0.4161,0.4161,0,0.4318,0.4311,0.4303,0.4292,0.4285,0.4275,0.4265,0.4262,0.4243,0.4238,0.4229,0.4222,0.4209,0.4199,0.4187,0.4178,0.4167,0.4164,0.4165,0.417,0.4176,0.4173,0.4147,0.4164,0.4164,0.4163,0.4163,0.4163,0.4334,0.4332,0.4318,0.431,0.43,0.4291,0.4287,0.4275,0.4268,0.4256,0.4246,0.4238,0.4225,0.4208,0.42,0.4194,0.4188,0.4189,0.4189,0.4189,0.4192,0.4177,0.4191,0.4191,0.4191,0.4191,0.4191,0,0.4353,0.4343,0.4335,0.4322,0.4315,0.4305,0.4294,0.4289,0.4282,0.4271,0.4263,0.4253,0.4244,0.4229,0.4219,0.4217,0.4211,0.4215,0.4215,0.4213,0.4197,0.4197,0.4219,0.4219,0.4219,0.4219,0.4219,0.4219,0.4361,0.4356,0.4348,0.4338,0.4329,0.4321,0.4315,0.4307,0.4298,0.4288,0.4281,0.4271,0.4259,0.4248,0.4239,0.4235,0.4232,0.4237,0.4232,0.4217,0.4214,0.4212,0.4212,0.4237,0.4237,0.4249,0.4249,0.4249]},{"header":{"parameterUnit":"m.s-1","parameterCategory":1,"la1":30.2991,"la2":30.254,"lo1":-89.0895,"lo2":-89.0444,"dy":0.0017,"dx":0.0017,"nx":28,"ny":28,"refTime":"2025-11-26T03:00:00:Z","depth":0,"parameterNumber":3,"parameterNumberName":"V-component_of_WINDS"},"data":[0,0,0,0,0,0,0,0,0,0,0,0,0,0,0,0,0,0,0,0,0,0,0,0,0,0,0,0,0,0,0,0,0,0,0,0,0,0,0,0,0,0,0,0,0,0,0,0,0,0,0,0,0,0,0,0,0,0,-5.6479,-5.648,0,-5.6529,-5.653,-5.653,-5.6493,-5.6491,-5.649,-5.6488,-5.6534,-5.6537,-5.6539,0,0,0,0,0,0,0,0,0,0,0,0,0,-5.6348,-5.635,-5.6479,-5.648,-5.648,-5.6529,-5.653,-5.653,-5.6493,-5.6491,-5.6489,-5.6488,-5.6533,-5.6536,-5.654,0,0,0,0,0,0,0,0,0,0,0,0,0,-5.6402,-5.6351,-5.6479,-5.6468,-5.6467,-5.6529,-5.653,-5.6531,-5.6494,-5.6491,-5.6489,-5.6487,-5.6532,-5.6536,-5.654,-5.6614,0,0,-5.6553,-5.6554,0,0,0,0,0,0,0,0,-5.6399,-5.6407,-5.6469,-5.6469,-5.6468,-5.6503,-5.65,-5.6558,-5.6494,-5.6484,-5.6488,-5.6486,-5.6525,-5.653,-5.6544,-5.6616,-5.6618,-5.6553,-5.6555,-5.6557,-5.6558,0,0,0,0,0,0,0,-5.6395,-5.6404,-5.6499,-5.647,-5.6469,-5.6459,-5.6464,-5.6511,-5.6517,-5.6484,-5.6482,-5.6489,-5.6525,-5.654,-5.6545,-5.6618,-5.6553,-5.6556,-5.6559,-5.6561,-5.6755,-5.6758,0,0,0,0,0,0,-5.6393,-5.6401,-5.6497,-5.65,-5.6427,-5.6464,-5.6469,-5.6494,-5.6517,-5.6518,-5.6491,-5.6487,-5.6535,-5.654,-5.6546,-5.6636,-5.6557,-5.6561,-5.6563,-5.6753,-5.6756,-5.6759,0,0,0,0,0,0,-5.639,-5.6402,-5.6495,-5.645,-5.6461,-5.6468,-5.6496,-5.6496,-5.6512,-5.6521,-5.6522,-5.6506,-5.6533,-5.6541,-5.6598,-5.6637,-5.6563,-5.6567,-5.6749,-5.6754,-5.6757,-5.6815,0,0,0,0,0,0,-5.6387,-5.6401,-5.643,-5.6451,-5.6464,-5.6547,-5.6499,-5.6499,-5.652,-5.6515,-5.6536,-5.6537,-5.6532,-5.6592,-5.6602,-5.6641,-5.657,-5.6746,-5.6751,-5.6756,-5.681,-5.682,-5.683,0,0,0,0,0,-5.6382,-5.6442,-5.6431,-5.6443,-5.65,-5.655,-5.6557,-5.6551,-5.6523,-5.6552,-5.6558,-5.6536,-5.6631,-5.6599,-5.6609,-5.665,-5.6744,-5.675,-5.6756,-5.6805,-5.6818,-5.6829,0,0,0,0,0,0,-5.6422,-5.6445,-5.6433,-5.6502,-5.6525,-5.6543,-5.6579,-5.6565,-5.6594,-5.6588,-5.6578,-5.6583,-5.6644,-5.6652,-5.6616,-5.6724,-5.6683,-5.6691,-5.6716,-5.6729,-5.6739,-5.6736,-5.6573,0,0,0,0,0,-5.644,-5.648,-5.6496,-5.6555,-5.6567,-5.6572,-5.6593,-5.6587,-5.6609,-5.6618,-5.6628,-5.6649,-5.6684,-5.6706,-5.6739,-5.681,-5.6815,-5.6844,-5.6854,-5.6862,-5.687,-5.6911,-5.6924,-5.6779,-5.6779,-5.6779,0,0,-5.6475,-5.6492,-5.6517,-5.6564,-5.6581,-5.6622,-5.658,-5.6624,-5.6654,-5.6623,-5.668,-5.6688,-5.6711,-5.6777,-5.6806,-5.6786,-5.6911,-5.687,-5.6877,-5.688,-5.6919,-5.6932,-5.6945,-5.6783,-5.6783,-5.6782,0,0,-5.6561,-5.6577,-5.663,-5.6649,-5.6676,-5.6678,-5.6691,-5.6713,-5.6718,-5.6775,-5.6754,-5.6789,-5.6848,-5.6866,-5.6883,-5.6979,-5.6961,-5.6989,-5.7042,-5.7082,-5.7094,-5.7104,-5.714,-5.7153,-5.6997,-5.6997,-5.6997,0,-5.6601,-5.6663,-5.6658,-5.6706,-5.6727,-5.6704,-5.6758,-5.6775,-5.681,-5.6825,-5.6802,-5.6879,-5.6892,-5.6963,-5.6987,-5.7001,-5.7015,-5.6987,-5.7093,-5.7103,-5.7112,-5.7146,-5.716,-5.7001,-5.7,-5.7,-5.6999,0,-5.6712,-5.6756,-5.6795,-5.6833,-5.6859,-5.6908,-5.6911,-5.6937,-5.6929,-5.6934,-5.6993,-5.7009,-5.7045,-5.7061,-5.7052,-5.7132,-5.7119,-5.7094,-5.7053,-5.713,-5.7162,-5.7175,-5.7006,-5.7004,-5.7003,-5.7002,0,0,-5.6823,-5.6861,-5.6876,-5.6894,-5.6923,-5.6956,-5.7005,-5.7043,-5.7067,-5.7092,-5.7133,-5.7186,-5.7165,-5.7184,-5.7177,-5.7212,-5.729,-5.7184,-5.7184,-5.7205,-5.738,-5.7399,-5.7414,-5.7278,-5.728,-5.7282,-5.7379,0,-5.6913,-5.7001,-5.6999,-5.708,-5.7122,-5.7102,-5.7144,-5.7167,-5.7173,-5.7208,-5.7214,-5.7252,-5.722,-5.7232,-5.7266,-5.7273,-5.7325,-5.7266,-5.7316,-5.7318,-5.7313,-5.7431,-5.7451,-5.7541,-5.7391,-5.7393,-5.7394,0,-5.7028,-5.7061,-5.7148,-5.7174,-5.7191,-5.723,-5.7266,-5.73,-5.7325,-5.7327,-5.735,-5.7339,-5.7388,-5.7345,-5.7414,-5.7374,-5.7394,-5.7401,-5.7404,-5.7409,-5.7362,-5.7441,-5.7569,-5.7584,-5.7414,-5.7412,-5.7411,0,-5.7104,-5.7169,-5.723,-5.7246,-5.7278,-5.7306,-5.732,-5.7343,-5.7367,-5.7397,-5.7413,-5.7448,-5.7468,-5.7495,-5.7493,-5.7462,-5.7563,-5.7519,-5.7567,-5.7567,-5.7589,-5.7588,-5.7725,-5.76,-5.76,-5.76,-5.7599,0,-5.7204,-5.7258,-5.7265,-5.7303,-5.7363,-5.736,-5.742,-5.743,-5.7452,-5.7491,-5.7474,-5.751,-5.7506,-5.7542,-5.7541,-5.7599,-5.7607,-5.761,-5.7609,-5.7613,-5.7613,-5.7626,-5.7621,-5.7603,-5.7602,-5.7602,-5.7601,0,-5.7299,-5.7305,-5.7371,-5.7397,-5.7405,-5.7448,-5.747,-5.7505,-5.7511,-5.7561,-5.7572,-5.7581,-5.7623,-5.7624,-5.7672,-5.7671,-5.7742,-5.7733,-5.7735,-5.7734,-5.7782,-5.7778,-5.7933,-5.7954,-5.7814,-5.7816,-5.7817,0,-5.7363,-5.7405,-5.7436,-5.7463,-5.748,-5.7522,-5.7547,-5.7546,-5.7572,-5.7606,-5.7638,-5.7679,-5.7712,-5.7781,-5.7791,-5.7828,-5.7821,-5.7873,-5.7826,-5.7829,-5.7824,-5.7822,-5.7827,-5.7882,-5.7883,-5.7885,-5.7886,0,-5.7478,-5.748,-5.7518,-5.7559,-5.7591,-5.7622,-5.765,-5.7672,-5.7674,-5.7705,-5.775,-5.7776,-5.7827,-5.7869,-5.7905,-5.7918,-5.7903,-5.7901,-5.7914,-5.7918,-5.7918,-5.7921,-5.7762,-5.7897,-5.7896,-5.7895,-5.7894,-5.7894,-5.756,-5.7598,-5.7627,-5.7671,-5.7693,-5.7722,-5.7757,-5.7769,-5.7807,-5.785,-5.7846,-5.7897,-5.7922,-5.797,-5.7986,-5.8025,-5.8006,-5.8025,-5.803,-5.8035,-5.8041,-5.7911,-5.8031,-5.803,-5.803,-5.803,-5.803,0,-5.7676,-5.7694,-5.7735,-5.7778,-5.7813,-5.7798,-5.7829,-5.7859,-5.7905,-5.793,-5.7965,-5.8017,-5.8058,-5.8072,-5.8112,-5.814,-5.8134,-5.8151,-5.8149,-5.8153,-5.8054,-5.804,-5.8155,-5.8155,-5.8155,-5.8155,-5.8155,-5.8155,-5.774,-5.7804,-5.781,-5.7884,-5.7902,-5.7953,-5.7973,-5.7999,-5.802,-5.808,-5.8116,-5.8125,-5.8146,-5.8188,-5.8225,-5.8228,-5.8244,-5.8264,-5.8264,-5.8172,-5.8159,-5.8147,-5.8134,-5.8267,-5.8267,-5.836,-5.836,-5.8361]}]]